Location: Poughquag
(41.6090°N, 73.6820°W)
Time: 21:27:39
(UTC-05:00)

Courier 1B - Visible Passes

Search period start: 18 January 2021 00:00
Search period end: 28 January 2021 00:00
Orbit: 962 x 1209 km, 28.3° (Epoch: 18 January)

Date Brightness Start Highest point End Pass type
(mag) Time Alt. Az. Time Alt. Az. Time Alt. Az.
18 Jan 8.9 04:44:13 24° SSW 04:44:46 24° S 04:50:05 10° SE visible
18 Jan 9.6 06:34:26 10° SW 06:37:52 14° SSW 06:41:23 10° S visible
19 Jan 9.4 03:53:51 20° SSE 03:53:51 20° SSE 03:56:32 10° SE visible
19 Jan 9.4 05:40:45 11° SW 05:44:19 17° SSW 05:48:32 10° SSE visible
20 Jan 9.1 04:50:23 19° SSW 04:50:48 19° SSW 04:55:26 10° SSE visible
21 Jan 9.5 04:00:03 17° SSE 04:00:03 17° SSE 04:02:09 10° SE visible
21 Jan 9.6 05:48:35 10° SW 05:50:16 11° SSW 05:51:58 10° S visible
22 Jan 9.4 04:56:37 14° SSW 04:56:46 14° SSW 04:59:57 10° S visible
23 Jan 9.7 04:06:19 12° SSE 04:06:19 12° SSE 04:07:14 10° SSE visible
